Tracking 18840 objects as of 17-November-2017
HD Live streaming from Space Station
objects crossing your sky now

JB-3 C

Track JB-3 C now!
10-day predictions
JB-3 C is classified as:


NORAD ID: 28470
Int'l Code: 2004-044A
Perigee: 534.3 km
Apogee: 598.6 km
Inclination: 97.4 °
Period: 95.8 minutes
Semi major axis: 6937 km
RCS: 5.4024 m2 (large)
Launch date: November 6, 2004
Source: People's Republic of China (PRC)
Launch site: Taiyaun Space Center, China (TSC)

Third digital imaging spacecraft launched by Chinese government for reconnaissance purposes.
aabbcc
Your satellite tracking list
Your tracking list is empty




NASA's NSSDC Master Catalog

Two Line Element Set (TLE):
1 28470U 04044A   17321.52260166  .00001190  00000-0  92131-4 0  9996
2 28470  97.3976 236.9984 0046277 184.2042 175.8801 15.02462200715962
Source of the keplerian elements: AFSPC